Overview Statistics Trail Chart Weather Telemetry Raw packets
 

This is the latest recevied weather packets stored in our database for station/object N9DMT-13. If no packets are shown the sender has not sent any weather packets the latest 10 day(s).

<< 18 19 20 21 22 23 24 >>
Time Temp. Humidity Pressure Rain* Wind** Luminosity Snow
1777750303 15.56° C 33% 984.4 hPa 0 mm - - -
1777750003 15.56° C 33% 984.5 hPa 0 mm - - -
1777749702 15° C 35% 984.2 hPa 0 mm - - -
1777749401 15° C 31% 984.5 hPa 0 mm - - -
1777749101 14.44° C 34% 984.7 hPa 0 mm - - -
1777748800 14.44° C 37% 984.6 hPa 0 mm - - -
1777748499 15.56° C 31% 984.8 hPa 0 mm - - -
1777748198 15.56° C 34% 984.7 hPa 0 mm - - -
1777747898 16.11° C 34% 984.8 hPa 0 mm - - -
1777747597 16.11° C 34% 985.1 hPa 0 mm - - -
1777747297 15.56° C 35% 984.8 hPa 0 mm - - -
1777746996 16.11° C 33% 984.9 hPa 0 mm - - -
1777746695 15.56° C 35% 985 hPa 0 mm - - -
1777746394 16.11° C 31% 985.1 hPa 0 mm - - -
1777746094 15.56° C 32% 985.2 hPa 0 mm - - -
1777745793 15° C 34% 985.1 hPa 0 mm - - -
1777745492 14.44° C 37% 985.3 hPa 0 mm - - -
1777745192 14.44° C 37% 985.5 hPa 0 mm - - -
1777744891 14.44° C 38% 985.5 hPa 0 mm - - -
1777744590 14.44° C 35% 985.6 hPa 0 mm - - -
1777744289 15° C 35% 985.4 hPa 0 mm - - -
1777743988 15.56° C 36% 985.5 hPa 0 mm - - -
1777743688 14.44° C 35% 985.8 hPa 0 mm - - -
1777743387 13.89° C 37% 985.7 hPa 0 mm - - -
1777743086 14.44° C 33% 985.7 hPa 0 mm - - -

* Rain latest hour (hover to see other rain measurements)
** Current wind speed in m/s (hover to see current wind gust speed)